Regional Weather Roundup
Issued by NWS

Home | Current Version | Previous Version | Graphics & Text | Print | Product List | Glossary Off
Versions: 1 2 3 4 5 6 7 8 9 10 11 12 13 14 15 16 17 18 19 20 21 22 23 24 25 26 27 28 29 30 31 32 33 34 35 36 37 38 39 40 41 42 43 44 45 46 47 48 49 50

000
ASUS43 KFSD 222110
RWRSD

WEATHER ROUNDUP FOR SOUTH DAKOTA
NATIONAL WEATHER SERVICE SIOUX FALLS SD
400 PM CDT TUE MAY 22 2018

NOTE: "FAIR" INDICATES FEW OR NO CLOUDS BELOW 12,000 FEET WITH NO
SIGNIFICANT WEATHER AND/OR OBSTRUCTIONS TO VISIBILITY.


SDZ001>005-009-010-012>017-222200-
NORTHWEST AND NORTH CENTRAL SOUTH DAKOTA

CITY           SKY/WX    TMP DP  RH WIND       PRES   REMARKS
BUFFALO          N/A     81  52  36 E6        29.86F
FAITH            N/A     79  61  53 SE12      29.92S
$$

SDZ012>016-024>037-041>051-057-063-072>074-222200-
SOUTHWEST AND SOUTH CENTRAL SOUTH DAKOTA

CITY           SKY/WX    TMP DP  RH WIND       PRES   REMARKS
RAPID CTY ARPT PTSUNNY   78  56  46 SE14      29.92F
PIERRE         MOSUNNY   82  64  54 SE15      29.89S
CUSTER         PTSUNNY   71  46  40 E12G21    30.03F
ELLSWORTH AFB  PTSUNNY   79  55  42 E8        29.92F
PHILIP         PTSUNNY   82  57  42 E10G17    29.89F
PINE RIDGE     MOSUNNY   84  51  31 SE10G20   29.90F
WINNER         FAIR      82  64  54 SE8G17    29.91F
$$

SDZ004>011-016>023-039-040-222200-
NORTHEAST SOUTH DAKOTA

CITY           SKY/WX    TMP DP  RH WIND       PRES   REMARKS
ABERDEEN       PTSUNNY   86  52  30 SE8       29.92S
WATERTOWN      MOSUNNY   81  52  36 E6        29.96F
BROOKINGS      MOSUNNY   79  57  46 SE14      29.97S
SISSETON         N/A     81  55  40 SW5       29.94F
$$

SDZ017-020-022-023-036>040-048>070-222200-
SOUTHEAST SOUTH DAKOTA

CITY           SKY/WX    TMP DP  RH WIND       PRES   REMARKS
SIOUX FALLS    PTSUNNY   78  63  59 SE13      29.95F
HURON          MOSUNNY   82  60  47 SE12G20   29.92F
CHAMBERLAIN    MOSUNNY   84  64  51 SE13G18   29.91F
MITCHELL       MOSUNNY   83  65  54 S17G23    29.92F
YANKTON        MOSUNNY   78  66  66 SE9G22    29.93F
$$

ABBREVIATIONS USED IN REMARKS
   TC - TEMPERATURE IN CELSIUS
  WCI - WIND CHILL INDEX
   HX - HEAT INDEX
  VSB - VISIBILITY





USA.gov is the U.S. government's official web portal to all federal, state and local government web resources and services.